Temp
26 25 24 26 26 29 28 27 28 25 24 24 23 24 22 23 23 24 23 26 26 25 25 25 25 26 25 25 25 25 25 25 25 24 24 24 25 25 25 25 25 26 27 27
24 24 25 27 27 28 28 28 28 25 24 25 23 24 23 23 23 23 24 24 26 25 24 24 24 24 25 25 25 25 25 25 25 25 25 26 26 26 25 25 25 25 26 26
23 26 27 28 28 28 27 27 28 27 25 25 23 24 24 24 24 24 24 25 25 26 24 24 24 23 24 24 25 25 25 25 25 25 25 25 25 25 25 25 25 25 25 26
24 26 27 26 28 28 27 27 29 25 25 25 25 25 23 23 24 24 24 25 26 26 25 24 24 23 23 24 25 26 25 25 25 25 25 26 26 25 26 26 26 25 26 25
24 25 26 26 27 28 28 29 29 26 24 25 25 23 24 24 23 25 25 25 26 26 26 25 24 24 24 24 25 25 26 25 26 26 25 26 26 26 26 26 25 25 25 25
25 26 26 26 28 28 29 29 24 22 22 23 25 24 25 23 26 26 26 25 26 26 26 25 25 25 24 24 24 25 26 25 26 26 26 26 26 26 25 25 25 25 25 25
25 26 27 28 27 27 27 25 24 24 22 23 23 24 27 27 27 27 26 26 26 26 26 26 25 25 24 24 24 24 25 25 26 26 26 26 26 26 26 26 26 25 25 25
21 23 25 27 26 25 24 24 22 25 23 24 23 24 27 27 28 28 28 28 27 26 27 26 25 25 25 24 24 24 24 25 25 26 26 26 26 26 26 26 26 26 26 26
19 21 24 25 26 26 25 23 24 23 22 23 23 25 27 28 27 27 27 26 26 26 27 26 26 26 25 25 24 24 24 25 25 26 25 26 26 26 26 26 26 26 26 26
21 23 23 26 27 26 24 23 24 19 23 24 24 25 25 27 28 27 26 26 26 26 27 27 26 26 26 25 24 24 24 25 25 26 25 26 26 26 26 26 26 26 26 26
19 20 23 25 24 23 23 23 20 21 20 22 24 24 24 27 27 26 25 25 26 26 27 27 27 26 25 25 24 24 24 24 24 25 25 25 26 26 26 26 26 26 26 26
21 17 20 23 23 23 22 23 22 21 23 20 21 24 27 24 24 25 24 25 25 25 27 27 26 25 24 23 24 24 24 24 24 25 25 25 26 26 26 26 26 26 26 26
20 17 18 20 21 23 25 22 20 19 19 21 22 24 24 23 23 23 23 23 23 23 24 26 25 23 24 23 23 23 24 24 24 25 25 25 25 26 26 26 26 26 26 26
18 15 18 19 21 21 24 24 22 21 19 22 21 26 26 25 24 22 21 21 21 21 20 20 22 24 24 24 22 23 23 24 24 24 24 24 25 26 26 26 26 26 26 26
15 19 18 19 19 23 22 22 21 22 22 24 25 23 24 23 22 21 20 20 20 19 20 20 20 20 23 22 22 22 22 23 23 23 23 24 25 25 25 25 26 26 25 25
12 18 20 23 23 22 19 19 20 20 20 22 24 23 21 21 20 20 19 19 19 19 19 19 19 20 20 21 21 21 22 22 22 23 23 23 24 24 24 24 24 25 25 25
11 14 16 21 20 21 21 19 20 21 21 20 21 21 21 21 20 19 19 19 18 18 18 18 17 17 16 17 19 20 21 22 22 23 24 23 23 23 24 24 24 24 25 25
12 13 13 17 20 21 19 20 20 19 20 19 21 20 19 19 18 17 17 17 16 17 17 16 16 15 15 16 18 19 20 21 21 21 22 23 22 23 23 23 23 24 24 24
11 12 14 17 16 18 19 19 19 19 19 19 19 19 18 18 18 17 16 16 15 15 15 16 15 15 15 15 17 17 18 18 19 20 20 21 22 22 22 23 23 23 23 23
9 8 12 14 17 17 16 17 17 17 18 18 18 18 18 18 19 17 16 16 15 14 14 15 15 15 15 15 15 16 15 16 16 17 18 19 20 21 21 22 22 23 23 23
11 11 13 14 15 16 14 14 17 18 18 17 17 17 17 17 17 16 15 15 14 14 14 14 14 14 15 15 16 15 16 15 16 16 16 17 18 19 20 21 22 22 22 22
12 13 14 13 15 16 14 16 17 17 16 17 17 16 16 15 15 15 15 15 15 14 13 13 13 13 14 15 16 15 15 16 16 16 16 17 18 18 19 19 20 21 21 22
13 12 14 14 14 13 13 12 12 14 15 15 16 16 16 16 15 15 15 14 14 14 13 13 13 13 14 14 14 15 14 15 16 16 16 16 17 17 19 19 20 21 21 21
12 13 14 13 14 13 12 12 12 12 12 13 14 16 15 14 15 15 14 14 14 13 13 13 13 13 13 14 14 14 14 15 16 16 16 17 16 17 17 18 18 19 21 21
11 12 13 11 12 12 12 11 11 11 11 12 13 13 13 15 15 14 14 14 13 13 13 13 13 13 13 13 14 15 15 15 15 15 15 16 16 17 17 16 16 17 18 19
10 11 11 11 10 10 11 10 9 9 9 10 10 12 13 13 14 15 14 14 14 13 13 12 12 13 13 13 13 14 15 15 14 14 14 15 15 15 15 15 16 16 17 18
Height
757 776 788 776 774 769 777 786 791 788 784 790 794 792 793 789 791 790 793 791 793 795 796 800 802 806 811 815 819 821 824 828 831 835 837 840 841 843 845 846 847 848 851 853
771 782 765 762 767 771 776 781 788 788 784 788 794 793 788 787 784 786 787 789 787 792 795 796 801 804 807 811 816 820 823 827 830 834 837 839 840 842 845 847 848 849 851 853
775 766 755 761 768 776 778 784 784 787 788 785 794 798 790 784 781 784 781 782 783 785 790 793 798 801 804 808 812 816 820 825 829 833 836 838 840 842 845 847 848 850 851 852
764 752 756 765 769 770 787 769 770 788 795 812 788 817 795 784 782 781 777 777 777 779 782 787 792 797 801 803 809 814 818 821 827 831 835 837 838 840 843 845 847 849 851 852
765 760 763 766 765 762 775 760 768 779 798 798 800 816 790 780 788 774 768 768 767 769 774 780 784 790 793 801 805 810 814 818 822 828 832 836 837 839 841 844 847 849 850 852
754 745 751 757 753 755 754 764 785 797 806 827 798 805 790 786 764 762 762 762 761 763 767 771 777 783 791 796 802 807 811 815 819 824 829 832 835 837 840 843 845 847 849 851
759 756 747 744 761 758 765 785 819 826 832 828 798 803 775 754 747 744 748 752 753 756 762 768 775 780 786 791 797 803 806 812 815 820 825 829 832 834 838 840 842 844 846 849
785 787 759 747 757 771 778 784 819 825 833 816 801 804 769 738 732 731 730 733 744 750 754 760 765 771 779 785 791 796 802 808 812 816 821 826 829 831 834 838 840 841 843 846
787 782 752 746 748 753 777 791 777 808 815 818 802 780 748 729 731 731 731 734 737 743 746 751 760 766 772 778 785 790 796 804 809 812 817 822 826 829 831 834 838 841 842 844
763 776 753 744 742 750 761 765 796 814 825 826 806 791 782 748 735 731 731 731 732 736 742 747 756 763 770 775 781 788 791 797 803 809 813 818 822 825 829 832 835 838 841 843
759 767 763 748 756 765 771 776 789 791 805 819 815 799 753 743 735 734 730 728 728 731 736 738 746 756 766 771 775 782 789 795 800 805 809 814 818 822 826 828 832 835 838 841
752 774 780 763 751 748 755 767 771 800 801 807 803 788 737 738 734 731 731 724 724 725 729 735 741 750 759 767 772 775 781 787 793 798 803 809 814 819 822 825 827 831 833 836
752 778 788 777 767 753 753 761 769 781 790 798 801 785 739 738 740 735 735 736 728 729 733 734 742 746 751 757 764 769 775 780 786 792 798 803 809 813 817 820 824 827 830 833
753 776 774 787 771 763 760 756 762 770 797 789 786 765 746 741 742 739 740 741 740 736 738 740 743 744 746 751 756 763 768 774 780 787 793 798 803 807 811 815 820 823 826 828
767 764 767 762 759 750 754 757 761 764 765 770 762 767 747 744 742 745 740 744 745 746 745 746 747 745 747 751 755 761 767 774 780 786 790 794 798 803 807 810 813 817 820 823
777 767 758 750 747 752 767 762 761 764 766 760 756 757 745 743 744 749 752 752 750 751 750 749 749 748 747 751 755 758 764 770 775 780 785 791 795 798 802 805 808 811 813 815
789 782 777 767 758 759 771 768 764 763 761 764 766 756 748 746 751 756 757 758 763 761 758 755 757 756 754 756 755 759 763 767 773 778 779 784 788 791 796 799 802 803 806 809
789 787 787 780 766 781 773 757 759 766 765 763 755 757 755 756 759 762 763 764 766 767 767 763 765 766 755 761 756 759 762 766 771 778 782 781 784 789 791 793 794 795 798 800
786 787 786 781 790 780 772 768 771 771 774 766 764 762 763 760 759 768 769 771 769 770 771 772 768 767 766 758 756 764 765 767 772 774 776 777 778 781 783 786 787 789 792 793
791 798 794 789 779 787 783 774 770 769 779 768 764 765 764 763 771 775 774 770 771 770 771 773 769 766 765 767 770 770 770 765 770 774 775 775 775 776 778 779 781 783 786 785
787 793 790 785 782 782 783 779 768 780 785 770 768 767 769 770 775 779 778 778 777 779 782 786 780 776 779 778 775 779 769 771 773 774 773 775 772 773 773 773 775 776 776 778
784 786 783 786 783 786 782 770 777 776 773 773 773 774 775 779 780 781 781 781 783 787 790 788 783 781 783 779 775 772 771 774 774 773 771 770 769 770 769 770 769 767 768 770
783 785 779 783 786 789 787 786 785 778 780 780 777 780 779 780 780 782 784 786 787 785 783 782 783 784 782 781 780 778 778 775 773 774 771 769 767 767 765 764 763 761 760 762
782 782 781 785 789 789 789 785 784 787 788 787 785 783 784 783 783 782 782 785 788 788 787 789 788 787 785 784 784 780 779 777 774 773 771 769 769 768 767 764 762 759 758 758
788 786 785 791 789 787 788 792 793 793 792 790 789 791 791 788 788 787 785 786 789 791 792 790 791 789 785 783 779 779 780 778 777 775 773 770 767 766 763 762 762 759 758 756
792 790 789 791 791 791 793 795 794 794 797 797 796 792 792 791 789 788 785 785 786 789 792 793 796 793 781 783 785 782 782 781 781 781 777 773 767 762 760 759 757 757 753 750
Wind_Speed
3 4 6 9 6 3 4 4 3 2 4 4 7 3 10 13 10 10 7 14 13 13 18 24 27 29 29 28 28 27 24 21 19 18 13 10 12 13 13 10 8 12 12 10
5 5 9 7 5 4 3 1 1 1 4 3 3 6 4 11 14 12 12 9 15 11 9 17 23 27 30 32 31 30 28 24 22 19 15 9 11 14 13 12 11 13 13 11
7 6 6 7 5 5 2 3 2 2 4 2 5 5 5 6 9 9 9 8 7 13 13 12 18 26 29 31 34 33 31 27 23 20 15 10 10 14 13 13 12 12 10 12
5 5 6 6 5 6 3 7 3 7 3 2 1 4 5 8 15 11 14 14 14 13 15 15 21 23 27 34 37 34 30 28 25 21 17 14 15 15 16 15 14 13 10 14
8 8 7 4 6 7 6 7 5 4 3 2 2 2 6 9 11 19 19 17 17 16 17 18 23 30 34 30 37 37 30 28 26 24 20 16 18 18 19 16 14 12 11 15
7 2 6 10 5 6 3 4 7 5 3 2 6 5 5 6 14 13 14 15 17 16 18 18 30 31 30 31 32 36 32 30 28 28 23 19 15 16 21 17 15 15 13 13
2 1 1 3 5 3 5 6 2 2 1 5 3 2 10 4 6 10 19 18 18 17 16 16 17 25 28 29 33 34 36 33 30 30 27 23 17 15 22 20 18 18 16 14
6 4 7 3 6 7 7 9 5 6 4 4 3 6 6 9 8 8 12 20 17 18 17 19 21 28 30 31 33 35 35 36 33 32 30 26 23 18 20 21 20 18 20 16
5 6 4 4 5 9 4 4 7 6 2 1 4 7 9 8 6 7 11 16 20 19 19 20 22 29 32 33 35 36 36 37 37 35 31 29 26 21 18 22 22 20 18 17
8 1 5 5 4 2 9 8 4 2 7 5 4 4 6 9 8 3 8 15 16 17 17 16 16 26 28 30 32 32 37 39 41 39 35 33 31 25 19 18 23 23 22 18
5 3 4 2 6 10 2 3 4 5 4 6 1 6 7 8 5 5 7 8 13 16 17 17 17 26 27 28 31 31 30 32 33 38 37 35 34 30 24 21 22 24 26 23
1 5 5 7 2 3 7 9 7 5 4 1 4 7 4 8 5 6 6 8 9 13 16 13 16 25 27 27 30 34 32 34 37 38 36 38 35 33 29 26 24 22 22 23
3 0 2 7 6 3 3 5 6 5 3 7 6 6 4 7 5 6 3 6 6 8 7 10 14 19 28 30 30 33 36 34 34 37 37 36 38 37 36 33 29 26 24 23
2 2 6 7 7 5 3 5 5 7 5 5 6 8 4 3 4 5 6 6 7 8 8 5 4 12 25 28 31 33 35 35 34 33 34 34 37 40 39 39 36 32 29 26
4 1 4 6 6 3 4 2 7 6 5 9 7 9 9 5 2 1 8 7 9 10 9 7 3 1 15 20 25 25 23 26 28 25 26 32 37 37 38 39 41 40 36 34
7 1 2 2 1 5 5 5 7 6 2 4 3 6 1 6 8 8 8 6 11 11 10 8 9 10 10 13 17 19 25 25 27 28 26 30 29 30 33 35 39 40 42 41
5 4 4 3 4 5 3 3 6 7 6 3 3 4 3 10 11 9 10 10 9 10 9 10 8 10 13 13 13 14 21 24 24 28 35 26 26 28 31 34 34 37 40 41
3 2 2 2 3 3 2 5 8 9 8 9 8 10 9 10 11 12 12 11 10 10 9 10 10 10 17 12 17 15 11 18 22 24 28 28 27 26 27 28 34 37 38 38
10 3 1 3 3 3 3 2 2 2 3 6 4 13 11 12 16 10 11 12 11 10 10 11 13 12 15 19 15 12 14 15 14 14 15 18 25 29 26 27 31 34 28 31
5 5 3 1 5 5 2 7 9 5 2 4 4 4 2 2 4 3 7 10 12 16 16 15 15 16 19 15 12 12 11 11 8 3 3 8 13 18 23 26 30 31 28 31
4 3 5 3 4 2 7 12 3 3 2 4 3 9 6 5 4 6 7 9 13 11 11 10 13 13 12 12 13 9 15 11 7 6 4 3 5 10 18 22 26 26 29 30
4 3 1 1 4 2 14 2 3 2 4 5 6 9 11 10 9 8 7 7 8 7 7 10 12 14 13 14 15 16 17 13 9 7 6 7 5 7 9 13 18 24 32 29
3 1 1 2 4 2 4 10 8 9 7 6 4 4 8 8 10 8 7 6 7 8 8 11 12 12 15 15 14 15 14 14 14 9 8 9 9 9 9 12 16 18 21 25
2 3 3 2 3 3 9 8 14 12 11 10 11 5 2 5 5 8 7 5 6 8 9 8 9 10 13 13 14 14 15 14 13 15 13 12 10 10 11 12 13 13 14 21
2 4 2 1 2 4 9 9 10 11 12 13 12 8 7 4 1 4 5 5 7 6 5 9 9 13 13 15 15 16 15 15 15 14 15 14 11 12 13 13 14 12 12 11
2 2 2 3 4 2 1 5 9 8 10 9 9 10 9 5 4 3 5 8 9 8 9 7 2 2 10 10 14 15 14 14 11 12 12 14 14 13 14 14 18 15 13 14
Wind_Direction
204 119 175 193 188 147 146 163 201 222 168 143 223 258 180 190 195 204 206 196 195 195 201 193 200 204 203 205 200 196 196 195 189 181 178 182 186 200 199 190 179 160 160 167
64 192 210 152 179 168 184 188 354 95 153 157 207 261 173 193 201 199 194 204 198 194 185 191 185 197 206 206 205 198 195 195 196 193 191 197 188 192 197 191 184 171 176 178
162 216 149 152 169 161 243 163 193 209 144 265 132 294 198 206 208 209 208 197 209 190 183 189 183 187 195 204 205 203 197 195 196 201 197 198 183 187 191 198 195 189 197 197
198 207 165 147 178 150 233 184 206 130 120 231 213 275 237 200 207 215 217 205 206 197 191 180 188 187 190 202 205 206 205 200 197 201 204 208 198 190 201 206 201 200 203 191
220 166 176 168 175 157 225 165 182 143 126 46 199 105 267 167 212 222 218 214 204 193 188 185 187 190 196 194 201 207 206 201 201 199 204 210 210 213 210 206 201 204 193 189
187 198 158 191 173 169 171 95 50 53 90 334 227 172 253 194 207 212 222 216 200 191 191 187 190 191 191 193 197 205 203 204 202 199 206 208 211 210 209 204 204 199 193 190
36 215 266 142 143 93 100 83 359 1 29 221 263 167 246 226 213 198 196 203 199 188 186 183 183 188 191 186 193 202 203 208 203 203 207 210 216 218 210 212 213 205 204 207
144 248 167 190 183 159 176 153 158 178 196 251 100 238 251 218 230 218 203 195 186 187 185 185 189 187 188 189 193 195 201 208 208 207 207 210 216 224 224 226 226 223 220 223
140 260 260 207 155 142 188 157 180 104 26 64 232 290 302 281 223 215 188 168 184 191 187 186 187 189 189 190 193 194 198 206 212 211 210 210 213 220 227 228 232 235 233 230
210 187 206 212 120 74 159 169 102 359 164 205 278 267 241 305 298 328 190 179 182 180 187 178 182 188 192 192 193 197 198 203 212 213 215 212 213 217 225 229 228 237 241 238
137 105 273 144 200 177 91 164 65 126 141 166 215 262 222 264 285 209 197 174 164 171 183 180 175 181 187 191 188 193 196 200 207 216 216 216 215 218 223 225 232 235 237 240
194 142 205 200 295 240 163 179 159 134 223 213 165 261 332 285 310 184 190 167 172 166 176 176 167 165 175 185 188 190 193 198 205 215 218 218 219 222 224 229 231 235 237 234
206 318 69 350 358 349 170 177 137 117 86 193 158 261 337 49 51 60 87 332 105 110 113 153 156 168 182 187 189 189 194 200 203 210 218 221 223 225 228 231 234 232 235 239
52 131 154 190 204 161 188 185 173 143 142 189 216 256 283 312 142 101 85 61 47 78 74 63 133 183 188 191 188 193 198 201 200 206 213 220 226 230 233 235 233 236 238 240
64 208 184 228 220 178 102 77 161 170 189 179 217 211 247 196 190 5 119 107 89 83 83 75 51 134 194 186 190 195 195 199 203 199 206 219 229 234 236 237 238 237 238 241
349 348 340 317 123 140 107 29 81 49 6 294 288 231 267 96 76 46 28 68 109 106 101 78 76 78 95 150 176 183 197 193 204 204 214 223 229 234 237 240 241 242 243 243
349 1 47 261 53 112 49 39 101 98 39 335 212 317 145 108 86 48 45 55 57 75 83 72 60 60 66 74 131 166 196 203 207 215 222 220 228 236 244 246 244 246 246 247
281 23 74 237 61 193 228 106 106 105 58 11 62 66 73 85 85 65 51 54 47 42 41 56 59 55 59 84 92 95 130 207 216 221 232 240 237 241 244 244 244 246 247 248
192 133 252 151 94 108 152 2 29 3 57 26 37 104 96 90 73 58 48 49 47 40 29 30 49 57 61 53 75 97 105 113 149 203 226 234 243 249 247 239 240 244 239 242
104 60 81 242 128 173 77 319 333 306 105 4 106 56 22 93 97 72 63 55 46 36 21 10 30 41 48 53 65 80 69 72 59 52 249 247 242 244 239 239 242 246 241 243
109 94 189 220 110 97 353 310 272 151 170 74 63 92 83 78 71 106 88 66 58 48 29 22 48 45 32 54 69 68 68 52 29 354 344 326 272 261 256 253 247 245 245 243
113 137 141 197 99 148 351 314 88 23 50 91 80 92 98 103 110 96 79 73 64 60 41 34 32 39 38 40 50 48 50 43 27 11 359 10 354 312 293 279 272 258 246 243
89 120 55 15 101 66 17 73 45 38 59 20 83 76 118 122 113 111 93 75 50 33 31 46 46 36 34 31 35 36 23 28 37 43 24 4 355 346 334 334 325 277 249 238
84 28 130 101 193 116 61 47 40 27 31 24 24 44 59 119 139 126 112 98 61 48 38 36 51 43 30 34 25 27 16 14 19 22 30 28 15 2 352 337 337 341 250 235
22 331 122 35 203 187 72 42 43 22 22 17 15 15 11 17 140 146 148 152 132 99 50 44 22 30 23 14 32 26 16 9 3 6 13 16 20 12 1 345 336 332 323 331
26 289 162 196 212 175 146 25 32 42 28 6 353 349 349 334 295 242 147 147 142 153 171 145 140 73 59 33 17 24 19 15 10 1 7 11 14 14 13 1 346 336 345 352